Weather Roundup
Issued by NWS Springfield, MO

Home | Current Version | Previous Version | Text Only | Print | Product List | Glossary On
Versions: 1 2 3 4 5 6 7 8 9 10 11 12 13 14 15 16 17 18 19 20 21 22 23 24 25 26 27 28 29 30 31 32 33 34 35 36 37 38 39 40 41 42 43 44 45 46 47 48 49 50
000
NZUS99 KSGF 290559
HRRSGF

HOURLY WEATHER
NATIONAL WEATHER SERVICE SPRINGFIELD MO
100 AM CDT FRI MAY 29 2015

......SGF CWA......

CITY           SKY/WX    TMP DP  RH WIND       PRES   REMARKS
SPRINGFIELD    MOCLDY    67  63  87 S10       30.02F
6HR MIN TEMP:  67; 6HR MAX TEMP:  71;

JOPLIN         MOCLDY    69  65  86 SE10      29.97F
6HR MIN TEMP:  67; 6HR MAX TEMP:  76;

WEST PLAINS    CLOUDY    69  63  81 S7        30.07F
6HR MIN TEMP:  69; 6HR MAX TEMP:  74; 6HR PCP:  0.01;

ROLLA          CLOUDY    68  67  96 S9        30.01F
6HR MIN TEMP:  68; 6HR MAX TEMP:  74; 6HR PCP:  0.07;

OSAGE BEACH    MOCLDY    64  63  94 S5        30.01F

......SURROUNDING SGF CWA......

CITY           SKY/WX    TMP DP  RH WIND       PRES   REMARKS
CHANUTE        CLOUDY    69  66  90 SE6       29.95F
PARSONS        CLOUDY    69  67  93 SE5       29.95F
COFFEYVILLE    CLOUDY    70  67  90 SE9       29.93F
EMPORIA        CLOUDY    66  65  96 SE7       29.94F
SILOAM SPRINGS CLOUDY    66  57  72 SE6       30.02F
HARRISON AR    MOCLDY    64  62  93 SE9       30.06F
NEAR YELLVILLE CLOUDY    66  63  88 CALM      30.04F

......KANSAS AND MISSOURI......

CITY           SKY/WX    TMP DP  RH WIND       PRES   REMARKS
KANSAS CTY INT MOCLDY    64  63  96 SE9       29.97F
DOWNTOWN KC    MOCLDY    67  62  84 SE7       29.97F
COLUMBIA       CLOUDY    67  65  93 SE16      29.99F
SEDALIA        CLOUDY    67  65  93 SE5       30.00F
ST JOSEPH      PTCLDY    66  64  93 S9        29.97S
ST LOUIS       MOCLDY    74  64  71 S10       30.05S
SPIRIT OF STL  MOCLDY   N/A N/A N/A CALM      30.03S
KIRKSVILLE     CLOUDY    65  64  97 SE5       30.00F
WICHITA        TSTM      67  61  81 N12       29.94F
TOPEKA         MOCLDY    66  64  93 SE8       29.95F
OLATHE         MOCLDY    64  63  96 SE7       29.97F

......TENNESSEE......

CITY           SKY/WX    TMP DP  RH WIND       PRES   REMARKS
MEMPHIS        PTCLDY    74  66  76 SE7       30.06F
NASHVILLE      PTCLDY    68  65  90 CALM      30.12F

......ARKANSAS.......

CITY           SKY/WX    TMP DP  RH WIND       PRES   REMARKS
FAYETTEVILLE   MOCLDY    63  62  97 CALM      30.02F
FT SMITH       CLOUDY    68  65  90 E9        30.00F
LITTLE ROCK    MOCLDY    69  65  86 CALM      30.04F

......OKLAHOMA.......

CITY           SKY/WX    TMP DP  RH WIND       PRES   REMARKS
TULSA          CLOUDY    73  68  84 SE10      29.92F
PONCA CITY     CLOUDY    73  70  90 S7        29.92S
MCALESTER      TSTM      72  66  81 S6        29.99S
OKLAHOMA CITY  CLOUDY    68  59  73 SE10      29.90R

......IOWA............

CITY           SKY/WX    TMP DP  RH WIND       PRES   REMARKS
DES MOINES     MOCLDY    65  62  90 S7        29.96S
QUAD CITIES    CLOUDY    66  61  84 E3        30.01S

......ILLINOIS........

CITY           SKY/WX    TMP DP  RH WIND       PRES   REMARKS
QUINCY         CLOUDY    67  65  93 SE7       30.02S
CHICAGO        MOCLDY    65  55  70 SE5       30.05S




USA.gov is the U.S. government's official web portal to all federal, state and local government web resources and services.